TimeCST,TemperatureF,Dew PointF,Humidity,Sea Level PressureIn,VisibilityMPH,Wind Direction,Wind SpeedMPH,Gust SpeedMPH,PrecipitationIn,Events,Conditions,WindDirDegrees,DateUTC
12:53 AM,37.0,30.0,76,30.30,10.0,South,5.8,-,N/A,,Scattered Clouds,190,2013-11-29 06:53:00
1:53 AM,36.0,30.9,82,30.28,10.0,South,5.8,-,N/A,,Scattered Clouds,180,2013-11-29 07:53:00
2:53 AM,35.1,30.0,82,30.28,10.0,South,5.8,-,N/A,,Mostly Cloudy,180,2013-11-29 08:53:00
3:53 AM,34.0,28.9,82,30.30,10.0,SW,5.8,-,N/A,,Mostly Cloudy,220,2013-11-29 09:53:00
4:53 AM,34.0,28.9,82,30.30,10.0,SW,3.5,-,N/A,,Mostly Cloudy,230,2013-11-29 10:53:00
5:53 AM,33.1,28.9,85,30.32,10.0,WSW,3.5,-,N/A,,Mostly Cloudy,250,2013-11-29 11:53:00
6:53 AM,32.0,28.9,88,30.34,10.0,West,4.6,-,N/A,,Mostly Cloudy,260,2013-11-29 12:53:00
7:53 AM,30.9,28.0,89,30.35,10.0,WSW,3.5,-,N/A,,Mostly Cloudy,250,2013-11-29 13:53:00
8:53 AM,35.1,32.0,89,30.35,10.0,SW,4.6,-,N/A,,Mostly Cloudy,220,2013-11-29 14:53:00
9:53 AM,41.0,34.0,76,30.35,10.0,SW,8.1,-,N/A,,Scattered Clouds,220,2013-11-29 15:53:00
10:53 AM,46.9,33.1,59,30.34,10.0,South,11.5,-,N/A,,Scattered Clouds,190,2013-11-29 16:53:00
11:53 AM,51.1,34.0,52,30.31,10.0,SW,9.2,-,N/A,,Scattered Clouds,220,2013-11-29 17:53:00
12:53 PM,54.0,34.0,47,30.26,10.0,SSW,8.1,-,N/A,,Mostly Cloudy,200,2013-11-29 18:53:00
1:53 PM,57.9,33.1,39,30.23,10.0,SSW,12.7,-,N/A,,Scattered Clouds,210,2013-11-29 19:53:00
2:53 PM,60.1,34.0,38,30.20,10.0,SSW,11.5,-,N/A,,Mostly Cloudy,200,2013-11-29 20:53:00
3:53 PM,60.1,33.1,36,30.19,10.0,SSW,16.1,-,N/A,,Mostly Cloudy,200,2013-11-29 21:53:00
4:53 PM,57.9,33.1,39,30.19,10.0,SSW,12.7,-,N/A,,Overcast,210,2013-11-29 22:53:00
5:53 PM,53.1,34.0,48,30.20,10.0,SSW,11.5,-,N/A,,Mostly Cloudy,200,2013-11-29 23:53:00
6:53 PM,48.9,34.0,56,30.22,10.0,SSW,5.8,-,N/A,,Scattered Clouds,200,2013-11-30 00:53:00
7:53 PM,46.9,35.1,63,30.25,10.0,SSW,6.9,-,N/A,,Scattered Clouds,200,2013-11-30 01:53:00
8:53 PM,46.9,35.1,63,30.24,10.0,SSW,10.4,-,N/A,,Partly Cloudy,200,2013-11-30 02:53:00
9:53 PM,48.0,36.0,63,30.22,10.0,SSW,11.5,-,N/A,,Scattered Clouds,210,2013-11-30 03:53:00
10:53 PM,46.9,36.0,66,30.21,10.0,SW,9.2,-,N/A,,Scattered Clouds,230,2013-11-30 04:53:00
11:53 PM,46.0,36.0,68,30.21,10.0,SW,11.5,-,N/A,,Scattered Clouds,220,2013-11-30 05:53:00